Location: Melbourne
(37.8170°S, 144.9670°E)
Time: 03:56:45
(UTC+10:00)

deb Explorer IX - All Passes

Search period start: 30 July 2015 00:00
Search period end: 09 August 2015 00:00
Orbit: 541 x 1153 km, 38.8° (Epoch: 27 July)

Date Brightness Start Highest point End Pass type
(mag) Time Alt. Az. Time Alt. Az. Time Alt. Az.
30 Jul - 00:59:41 10° NW 01:04:06 49° NNE 01:09:18 10° E night (unlit)
30 Jul - 02:46:27 10° W 02:51:30 84° S 02:57:36 10° E visible
30 Jul - 04:33:42 10° W 04:39:21 88° NNW 04:46:06 10° ENE visible
30 Jul - 06:21:08 10° W 06:27:03 45° NNW 06:33:48 10° NE visible
30 Jul - 08:10:30 10° WNW 08:14:26 15° NW 08:18:18 10° N daylight
30 Jul - 23:00:28 10° NNE 23:02:22 13° NE 23:04:31 10° ENE night (unlit)
31 Jul - 00:44:38 10° NW 00:48:59 53° NNE 00:54:06 10° E night (unlit)
31 Jul - 02:31:28 10° W 02:36:25 82° S 02:42:20 10° E visible
31 Jul - 04:18:41 10° W 04:24:11 85° NNW 04:30:48 10° ENE visible
31 Jul - 06:06:08 10° W 06:11:49 41° NNW 06:18:20 10° NE visible
31 Jul - 07:55:57 10° WNW 07:59:11 13° NW 08:02:12 10° NNW daylight
31 Jul - 22:44:58 10° N 22:47:13 14° NE 22:49:42 10° ENE night (unlit)
01 Aug - 00:29:35 10° WNW 00:33:53 57° NNE 00:38:53 10° E night (unlit)
01 Aug - 02:16:29 10° W 02:21:19 81° S 02:27:04 10° E night (unlit)
01 Aug - 04:03:40 10° W 04:09:02 82° NNW 04:15:28 10° ENE visible
01 Aug - 05:51:08 10° W 05:56:36 38° NNW 06:02:51 10° NE visible
01 Aug - 07:41:46 10° WNW 07:43:55 11° NW 07:45:45 10° NNW daylight
01 Aug - 22:29:32 10° N 22:32:04 16° NE 22:34:48 10° ENE night (unlit)
02 Aug - 00:14:31 10° WNW 00:18:47 61° NNE 00:23:40 10° E night (unlit)
02 Aug - 02:01:29 10° W 02:06:12 80° S 02:11:49 10° E night (unlit)
02 Aug - 03:48:39 10° W 03:53:52 78° NNW 04:00:09 10° ENE visible
02 Aug - 05:36:09 10° W 05:41:22 34° NNW 05:47:19 10° NNE visible
02 Aug - 22:14:09 10° N 22:16:54 18° NE 22:19:52 10° ENE night (unlit)
02 Aug - 23:59:28 10° WNW 00:03:40 65° NNE 00:08:28 10° E night (unlit)
03 Aug - 01:46:29 10° W 01:51:06 79° S 01:56:33 10° E night (unlit)
03 Aug - 03:33:37 10° W 03:38:42 74° NNW 03:44:48 10° ENE visible
03 Aug - 05:21:11 10° W 05:26:08 30° NNW 05:31:44 10° NNE visible
03 Aug - 21:58:47 10° NNW 22:01:45 20° NNE 22:04:54 10° E night (unlit)
03 Aug - 23:44:24 10° WNW 23:48:34 70° NNE 23:53:16 10° E night (unlit)
04 Aug - 01:31:28 10° W 01:35:59 79° S 01:41:18 10° E night (unlit)
04 Aug - 03:18:36 10° W 03:23:32 69° NNW 03:29:27 10° ENE visible
04 Aug - 05:06:15 10° W 05:10:54 27° NNW 05:16:08 10° NNE visible
04 Aug - 21:43:27 10° NNW 21:46:35 22° NNE 21:49:53 10° E night (unlit)
04 Aug - 23:29:20 10° WNW 23:33:28 74° NNE 23:38:04 10° E night (unlit)
05 Aug - 01:16:27 10° W 01:20:53 79° S 01:26:02 10° E night (unlit)
05 Aug - 03:03:34 10° W 03:08:22 64° NNW 03:14:05 10° ENE visible
05 Aug - 04:51:21 10° W 04:55:40 24° NNW 05:00:28 10° NNE visible
05 Aug - 21:28:07 10° NNW 21:31:26 24° NNE 21:34:53 10° E night (unlit)
05 Aug - 23:14:14 10° WNW 23:18:22 79° NNE 23:22:52 10° E night (unlit)
06 Aug - 01:01:25 10° W 01:05:46 79° S 01:10:47 10° E night (unlit)
06 Aug - 02:48:31 10° W 02:53:12 59° NNW 02:58:42 10° ENE night (unlit)
06 Aug - 04:36:28 10° W 04:40:26 21° NNW 04:44:46 10° NNE visible
06 Aug - 21:12:48 10° NNW 21:16:17 27° NNE 21:19:50 10° E night (unlit)
06 Aug - 22:59:09 10° WNW 23:03:15 83° NNE 23:07:40 10° E night (unlit)
07 Aug - 00:46:22 10° W 00:50:39 80° S 00:55:32 10° E night (unlit)
07 Aug - 02:33:29 10° W 02:38:01 54° NNW 02:43:19 10° NE night (unlit)
07 Aug - 04:21:40 10° WNW 04:25:12 18° NNW 04:28:59 10° N visible
07 Aug - 20:57:28 10° NW 21:01:08 30° NNE 21:04:47 10° E night (unlit)
07 Aug - 22:44:02 10° WNW 22:48:09 88° NNE 22:52:29 10° E night (unlit)
08 Aug - 00:31:17 10° W 00:35:31 82° S 00:40:17 10° E night (unlit)
08 Aug - 02:18:26 10° W 02:22:50 49° NNW 02:27:55 10° NE night (unlit)
08 Aug - 04:06:57 10° WNW 04:09:58 15° NNW 04:13:06 10° N visible
08 Aug - 20:42:09 10° NW 20:45:58 34° NNE 20:49:42 10° E visible
08 Aug - 22:28:55 10° W 22:33:02 89° S 22:37:18 10° E night (unlit)
